Total_Precipitation_Accumulation
0.43 0.43 0.46 0.52 0.55 0.60 0.63 0.62 0.59 0.62 0.66 0.66 0.62 0.59 0.61 0.68 0.78 0.86 0.85 0.87 0.91 0.91 0.91 0.92 0.91 0.91 0.94 0.94 0.95 0.96 1.01 1.20 1.21 0.59 0.40 0.46 0.59 0.64 0.65 0.62 0.61 0.65 0.66
0.48 0.48 0.48 0.52 0.56 0.60 0.64 0.68 0.69 0.69 0.71 0.74 0.73 0.69 0.61 0.60 0.69 0.77 0.82 0.85 0.91 0.92 0.93 0.98 0.98 0.98 1.02 1.02 1.08 1.08 1.06 1.10 1.21 0.90 0.54 0.51 0.59 0.65 0.70 0.71 0.65 0.64 0.65
0.47 0.53 0.52 0.54 0.60 0.67 0.69 0.70 0.70 0.73 0.77 0.78 0.80 0.81 0.76 0.73 0.77 0.80 0.82 0.84 0.85 0.85 0.87 0.93 0.98 1.05 1.09 1.08 1.09 1.10 1.06 1.01 1.05 1.05 0.74 0.59 0.63 0.68 0.75 0.78 0.77 0.77 0.73
0.52 0.53 0.59 0.63 0.66 0.71 0.75 0.74 0.74 0.76 0.79 0.83 0.84 0.85 0.88 0.93 1.04 1.06 0.96 0.93 0.88 0.85 0.84 0.89 0.96 1.08 1.17 1.25 1.32 1.24 1.16 1.21 1.22 1.22 1.00 0.79 0.73 0.74 0.90 0.95 0.93 0.87 0.82
0.69 0.68 0.64 0.66 0.67 0.66 0.70 0.73 0.74 0.78 0.81 0.79 0.78 0.81 0.86 0.99 1.30 1.33 1.14 1.04 0.97 0.90 0.85 0.85 0.89 1.08 1.30 1.52 1.65 1.60 1.57 1.63 1.58 1.55 1.35 1.10 0.94 0.94 1.02 1.01 1.05 0.95 0.92
0.77 0.81 0.72 0.65 0.65 0.67 0.67 0.68 0.71 0.74 0.75 0.74 0.73 0.73 0.82 0.99 1.41 1.46 1.24 1.02 0.97 0.97 0.95 0.88 0.85 0.94 1.05 1.24 1.48 1.57 1.67 1.81 1.89 1.84 1.69 1.45 1.12 1.00 1.06 1.23 1.37 1.38 1.22
0.74 0.82 0.83 0.71 0.65 0.66 0.65 0.63 0.63 0.63 0.65 0.65 0.65 0.66 0.68 0.86 1.29 1.35 1.19 0.94 0.86 0.86 0.86 0.80 0.80 0.79 0.86 0.82 0.97 1.08 1.18 1.38 1.64 1.82 1.90 1.55 1.26 1.15 1.35 1.59 1.62 1.61 1.35
0.76 0.74 0.77 0.70 0.61 0.61 0.64 0.61 0.55 0.54 0.57 0.58 0.58 0.58 0.55 0.62 1.03 1.27 1.15 0.83 0.76 0.77 0.76 0.77 0.78 0.76 0.76 0.86 0.94 0.98 0.91 0.94 1.18 1.44 1.59 1.46 1.37 1.39 1.62 1.92 2.08 2.14 1.77
0.70 0.65 0.65 0.60 0.57 0.59 0.63 0.59 0.53 0.50 0.51 0.52 0.53 0.56 0.55 0.55 0.81 1.19 1.23 0.87 0.83 0.77 0.76 0.88 0.93 0.83 0.89 1.10 1.22 1.18 0.98 0.84 0.93 1.26 1.55 1.60 1.65 1.86 2.11 2.49 2.78 2.88 2.55
0.57 0.57 0.62 0.56 0.52 0.56 0.60 0.56 0.52 0.50 0.52 0.53 0.55 0.62 0.62 0.56 0.72 1.12 1.37 0.98 0.89 0.79 0.79 0.91 1.18 1.15 1.14 1.23 1.29 1.32 1.26 0.96 0.87 0.93 1.04 1.17 1.21 1.30 1.69 2.06 2.36 2.68 2.63
0.44 0.45 0.55 0.58 0.55 0.54 0.54 0.54 0.53 0.54 0.53 0.55 0.56 0.61 0.63 0.59 0.63 0.92 1.37 1.25 1.03 0.92 0.90 0.96 1.10 1.21 1.22 1.25 1.31 1.28 1.33 1.27 1.22 1.19 1.13 1.07 1.10 1.22 1.39 1.66 1.93 2.26 2.53
0.37 0.39 0.45 0.54 0.54 0.53 0.53 0.51 0.50 0.54 0.57 0.57 0.58 0.60 0.61 0.61 0.63 0.79 1.14 1.36 1.27 1.07 1.00 0.91 0.99 1.15 1.22 1.25 1.21 1.22 1.32 1.36 1.29 1.26 1.20 1.12 1.08 1.14 1.20 1.36 1.62 1.80 1.98
0.33 0.37 0.41 0.47 0.48 0.48 0.50 0.50 0.48 0.49 0.55 0.60 0.62 0.63 0.62 0.62 0.66 0.80 0.91 1.03 1.17 1.09 1.06 1.21 1.19 1.16 1.11 1.05 1.05 1.12 1.14 1.10 1.15 1.15 1.05 0.94 0.89 0.93 1.05 1.22 1.41 1.59 1.73
0.34 0.40 0.43 0.47 0.50 0.49 0.47 0.46 0.47 0.52 0.66 0.74 0.74 0.72 0.67 0.64 0.72 0.91 0.97 0.94 1.03 1.06 1.06 1.16 1.16 1.05 0.95 0.91 0.94 0.95 0.94 1.01 1.13 1.13 1.00 0.89 0.84 0.92 1.04 1.14 1.32 1.47 1.72
0.38 0.43 0.47 0.50 0.51 0.52 0.49 0.48 0.52 0.55 0.77 1.03 0.99 0.98 0.99 0.96 1.03 1.33 1.36 1.25 1.25 1.27 1.29 1.27 1.15 1.01 0.92 0.84 0.81 0.78 0.79 0.92 1.04 1.03 1.04 1.03 0.99 1.01 1.05 1.09 1.27 1.43 1.63
0.39 0.42 0.47 0.53 0.57 0.55 0.52 0.52 0.53 0.55 0.65 0.72 0.78 0.91 0.93 1.07 1.22 1.23 1.20 1.19 1.24 1.28 1.32 1.23 1.03 0.92 0.87 0.83 0.82 0.81 0.79 0.83 0.87 0.95 1.02 1.05 1.07 1.09 1.09 1.09 1.25 1.42 1.50
0.41 0.44 0.48 0.51 0.54 0.56 0.57 0.56 0.55 0.53 0.54 0.57 0.61 0.69 0.83 1.01 1.08 1.07 1.12 1.07 1.06 1.08 1.08 0.96 0.87 0.85 0.83 0.81 0.82 0.82 0.80 0.75 0.81 0.93 1.01 1.05 1.09 1.14 1.14 1.15 1.20 1.30 1.36
0.44 0.48 0.51 0.53 0.55 0.55 0.57 0.58 0.57 0.56 0.57 0.57 0.56 0.60 0.70 0.83 0.92 0.97 1.03 1.01 0.96 0.88 0.86 0.87 0.85 0.82 0.81 0.81 0.82 0.83 0.81 0.79 0.83 0.90 0.95 0.98 1.04 1.13 1.15 1.10 1.10 1.23 1.32
0.40 0.43 0.47 0.51 0.54 0.55 0.57 0.59 0.58 0.57 0.58 0.59 0.59 0.62 0.68 0.73 0.79 0.86 0.88 0.84 0.85 0.81 0.78 0.80 0.79 0.83 0.85 0.83 0.81 0.81 0.83 0.85 0.83 0.85 0.88 0.89 0.94 1.06 1.08 1.00 1.03 1.14 1.33
0.38 0.45 0.50 0.51 0.53 0.55 0.58 0.60 0.62 0.63 0.63 0.61 0.63 0.69 0.77 0.82 0.83 0.82 0.79 0.78 0.80 0.79 0.76 0.80 0.77 0.79 0.84 0.85 0.84 0.83 0.85 0.83 0.81 0.82 0.83 0.84 0.88 0.99 1.04 0.99 1.04 1.15 1.23
0.41 0.45 0.51 0.51 0.52 0.56 0.60 0.65 0.67 0.70 0.71 0.67 0.64 0.68 0.98 1.12 0.98 0.82 0.78 0.81 0.86 0.89 0.86 0.84 0.78 0.74 0.76 0.80 0.84 0.84 0.84 0.79 0.76 0.81 0.85 0.85 0.88 0.97 0.97 1.01 1.05 1.10 1.20
0.46 0.50 0.52 0.54 0.55 0.59 0.65 0.67 0.69 0.71 0.71 0.68 0.64 0.64 0.73 0.76 0.75 0.74 0.75 0.80 0.87 0.92 0.93 0.95 0.87 0.75 0.76 0.85 0.91 0.93 0.86 0.76 0.73 0.82 0.89 0.88 0.90 0.95 0.98 1.03 1.05 1.11 1.19
0.52 0.55 0.55 0.54 0.56 0.64 0.65 0.61 0.64 0.68 0.69 0.66 0.63 0.64 0.65 0.69 0.71 0.75 0.79 0.82 0.88 0.92 0.90 0.90 0.88 0.76 0.69 0.76 0.85 0.96 1.00 0.88 0.84 0.96 1.09 1.06 1.00 1.00 1.03 1.06 1.05 1.11 1.14
0.58 0.60 0.61 0.59 0.59 0.61 0.62 0.61 0.63 0.65 0.67 0.68 0.66 0.67 0.69 0.70 0.72 0.75 0.79 0.83 0.87 0.88 0.88 0.87 0.83 0.76 0.71 0.74 0.77 0.80 0.86 0.96 1.16 1.31 1.29 1.28 1.16 1.04 1.05 1.08 1.04 1.04 1.09
0.60 0.62 0.64 0.65 0.65 0.66 0.66 0.63 0.63 0.65 0.68 0.69 0.69 0.69 0.69 0.70 0.71 0.74 0.78 0.82 0.87 0.87 0.83 0.81 0.80 0.77 0.73 0.70 0.70 0.73 0.84 1.02 1.26 1.59 1.80 1.73 1.43 1.16 1.12 1.11 1.06 1.04 1.08
0.59 0.58 0.60 0.63 0.67 0.70 0.73 0.72 0.69 0.70 0.74 0.72 0.71 0.73 0.75 0.76 0.76 0.78 0.82 0.88 0.94 0.91 0.86 0.82 0.76 0.73 0.71 0.71 0.70 0.75 0.90 1.11 1.33 1.60 2.03 2.20 1.79 1.35 1.19 1.21 1.12 1.10 1.14